Time,TemperatureF,DewpointF,PressureIn,WindDirection,WindDirectionDegrees,WindSpeedMPH,WindSpeedGustMPH,Humidity,HourlyPrecipIn,Conditions,Clouds,dailyrainin,SoftwareType,DateUTC
2013-01-27 00:16:00,35.7,31.0,30.37,East,101,1.0,6.0,82,0.00,,,0.00,weatherlink.com 1.10,2013-01-27 05:16:00,
2013-01-27 00:31:00,35.7,30.0,30.37,ENE,73,1.0,5.0,81,0.00,,,0.00,weatherlink.com 1.10,2013-01-27 05:31:00,
2013-01-27 00:46:00,35.5,30.0,30.38,ENE,63,5.0,6.0,81,0.00,,,0.00,weatherlink.com 1.10,2013-01-27 05:46:00,
2013-01-27 01:01:00,35.3,29.0,30.38,ENE,66,1.0,6.0,79,0.00,,,0.00,weatherlink.com 1.10,2013-01-27 06:01:00,
2013-01-27 01:16:00,35.1,29.0,30.39,ENE,66,2.0,4.0,77,0.00,,,0.00,weatherlink.com 1.10,2013-01-27 06:16:00,
2013-01-27 01:31:00,34.9,28.0,30.39,ENE,70,1.0,4.0,75,0.00,,,0.00,weatherlink.com 1.10,2013-01-27 06:31:00,
2013-01-27 01:46:00,34.7,28.0,30.39,ENE,71,3.0,6.0,76,0.00,,,0.00,weatherlink.com 1.10,2013-01-27 06:46:00,
2013-01-27 02:03:00,34.4,28.0,30.40,NE,49,1.0,7.0,76,0.00,,,0.00,weatherlink.com 1.10,2013-01-27 07:03:00,
2013-01-27 02:17:00,34.0,27.0,30.40,ENE,63,0.0,3.0,76,0.00,,,0.00,weatherlink.com 1.10,2013-01-27 07:17:00,
2013-01-27 02:32:00,33.3,27.0,30.41,NE,48,2.0,2.0,78,0.00,,,0.00,weatherlink.com 1.10,2013-01-27 07:32:00,
2013-01-27 02:47:00,32.5,27.0,30.41,NE,34,0.0,3.0,79,0.00,,,0.00,weatherlink.com 1.10,2013-01-27 07:47:00,
2013-01-27 03:02:00,31.9,26.0,30.42,NNE,14,0.0,2.0,80,0.00,,,0.00,weatherlink.com 1.10,2013-01-27 08:02:00,
2013-01-27 03:17:00,31.5,26.0,30.41,NE,38,1.0,2.0,81,0.00,,,0.00,weatherlink.com 1.10,2013-01-27 08:17:00,
2013-01-27 03:32:00,31.2,26.0,30.41,NE,48,1.0,3.0,82,0.00,,,0.00,weatherlink.com 1.10,2013-01-27 08:32:00,
2013-01-27 03:47:00,31.1,26.0,30.41,NNE,19,1.0,3.0,82,0.00,,,0.00,weatherlink.com 1.10,2013-01-27 08:47:00,
2013-01-27 04:02:00,31.1,26.0,30.42,NE,38,1.0,3.0,82,0.00,,,0.00,weatherlink.com 1.10,2013-01-27 09:02:00,
2013-01-27 04:17:00,31.2,26.0,30.42,NE,49,4.0,4.0,82,0.00,,,0.00,weatherlink.com 1.10,2013-01-27 09:17:00,
2013-01-27 04:32:00,31.0,26.0,30.42,NE,42,1.0,4.0,82,0.00,,,0.00,weatherlink.com 1.10,2013-01-27 09:32:00,
2013-01-27 04:47:00,30.8,26.0,30.43,NE,38,2.0,3.0,83,0.00,,,0.00,weatherlink.com 1.10,2013-01-27 09:47:00,
2013-01-27 05:02:00,30.5,26.0,30.43,NE,55,2.0,4.0,84,0.00,,,0.00,weatherlink.com 1.10,2013-01-27 10:02:00,
2013-01-27 05:17:00,30.4,26.0,30.43,NE,34,1.0,5.0,85,0.00,,,0.00,weatherlink.com 1.10,2013-01-27 10:17:00,
2013-01-27 05:32:00,30.5,27.0,30.43,NNE,33,2.0,7.0,86,0.00,,,0.00,weatherlink.com 1.10,2013-01-27 10:32:00,
2013-01-27 05:47:00,30.5,27.0,30.43,ENE,64,0.0,5.0,86,0.00,,,0.00,weatherlink.com 1.10,2013-01-27 10:47:00,
2013-01-27 06:02:00,30.5,27.0,30.44,ENE,58,4.0,5.0,87,0.00,,,0.00,weatherlink.com 1.10,2013-01-27 11:02:00,
2013-01-27 06:17:00,30.3,27.0,30.45,ENE,70,2.0,3.0,87,0.00,,,0.00,weatherlink.com 1.10,2013-01-27 11:17:00,
2013-01-27 06:32:00,30.4,27.0,30.45,ENE,63,1.0,4.0,87,0.00,,,0.00,weatherlink.com 1.10,2013-01-27 11:32:00,
2013-01-27 06:47:00,30.3,27.0,30.46,NE,48,0.0,4.0,87,0.00,,,0.00,weatherlink.com 1.10,2013-01-27 11:47:00,
2013-01-27 07:02:00,30.1,27.0,30.47,ENE,72,4.0,5.0,88,0.00,,,0.00,weatherlink.com 1.10,2013-01-27 12:02:00,
2013-01-27 07:17:00,30.0,27.0,30.47,North,2,2.0,4.0,88,0.00,,,0.00,weatherlink.com 1.10,2013-01-27 12:17:00,
2013-01-27 07:32:00,29.7,27.0,30.48,NNE,25,0.0,3.0,89,0.00,,,0.00,weatherlink.com 1.10,2013-01-27 12:32:00,
2013-01-27 07:48:00,29.8,27.0,30.48,NE,52,1.0,3.0,89,0.00,,,0.00,weatherlink.com 1.10,2013-01-27 12:48:00,
2013-01-27 08:02:00,30.9,28.0,30.48,NE,47,3.0,5.0,89,0.00,,,0.00,weatherlink.com 1.10,2013-01-27 13:02:00,
2013-01-27 08:17:00,32.4,29.0,30.48,NE,52,3.0,6.0,88,0.00,,,0.00,weatherlink.com 1.10,2013-01-27 13:17:00,
2013-01-27 08:32:00,33.9,30.0,30.49,NE,45,5.0,8.0,86,0.00,,,0.00,weatherlink.com 1.10,2013-01-27 13:32:00,
2013-01-27 08:47:00,35.4,31.0,30.50,East,79,4.0,8.0,84,0.00,,,0.00,weatherlink.com 1.10,2013-01-27 13:47:00,
2013-01-27 09:03:00,36.8,32.0,30.50,ENE,62,3.0,8.0,82,0.00,,,0.00,weatherlink.com 1.10,2013-01-27 14:03:00,
2013-01-27 09:18:00,37.9,32.0,30.51,East,82,5.0,10.0,80,0.00,,,0.00,weatherlink.com 1.10,2013-01-27 14:18:00,
2013-01-27 09:33:00,39.0,33.0,30.52,NE,35,4.0,9.0,78,0.00,,,0.00,weatherlink.com 1.10,2013-01-27 14:33:00,
2013-01-27 09:48:00,40.0,33.0,30.53,ENE,70,8.0,10.0,76,0.00,,,0.00,weatherlink.com 1.10,2013-01-27 14:48:00,
2013-01-27 10:03:00,40.9,34.0,30.54,North,4,3.0,8.0,75,0.00,,,0.00,weatherlink.com 1.10,2013-01-27 15:03:00,
2013-01-27 10:18:00,41.9,34.0,30.55,East,87,5.0,9.0,73,0.00,,,0.00,weatherlink.com 1.10,2013-01-27 15:18:00,
2013-01-27 10:33:00,42.6,34.0,30.54,ENE,61,4.0,10.0,72,0.00,,,0.00,weatherlink.com 1.10,2013-01-27 15:33:00,
2013-01-27 10:48:00,43.9,35.0,30.54,SSE,157,2.0,11.0,71,0.00,,,0.00,weatherlink.com 1.10,2013-01-27 15:48:00,
2013-01-27 11:03:00,44.6,35.0,30.54,NW,305,0.0,9.0,69,0.00,,,0.00,weatherlink.com 1.10,2013-01-27 16:03:00,
2013-01-27 11:18:00,45.2,36.0,30.54,NNE,26,6.0,10.0,69,0.00,,,0.00,weatherlink.com 1.10,2013-01-27 16:18:00,
2013-01-27 11:33:00,45.2,35.0,30.54,NE,48,10.0,11.0,68,0.00,,,0.00,weatherlink.com 1.10,2013-01-27 16:33:00,
2013-01-27 11:48:00,46.3,36.0,30.53,East,98,8.0,9.0,67,0.00,,,0.00,weatherlink.com 1.10,2013-01-27 16:48:00,
2013-01-27 12:03:00,47.0,36.0,30.53,East,80,6.0,9.0,65,0.00,,,0.00,weatherlink.com 1.10,2013-01-27 17:03:00,
2013-01-27 12:18:00,47.2,36.0,30.52,East,98,5.0,11.0,66,0.00,,,0.00,weatherlink.com 1.10,2013-01-27 17:18:00,
2013-01-27 12:33:00,47.6,34.0,30.52,SSE,163,2.0,9.0,60,0.00,,,0.00,weatherlink.com 1.10,2013-01-27 17:33:00,
2013-01-27 12:48:00,48.1,34.0,30.52,ENE,66,8.0,9.0,58,0.00,,,0.00,weatherlink.com 1.10,2013-01-27 17:48:00,
2013-01-27 13:03:00,47.6,33.0,30.50,East,99,3.0,11.0,58,0.00,,,0.00,weatherlink.com 1.10,2013-01-27 18:03:00,
2013-01-27 13:18:00,48.6,33.0,30.49,ENE,78,3.0,7.0,56,0.00,,,0.00,weatherlink.com 1.10,2013-01-27 18:18:00,
2013-01-27 13:33:00,48.6,33.0,30.49,NE,51,3.0,10.0,55,0.00,,,0.00,weatherlink.com 1.10,2013-01-27 18:33:00,
2013-01-27 13:48:00,48.6,33.0,30.50,ENE,73,4.0,9.0,55,0.00,,,0.00,weatherlink.com 1.10,2013-01-27 18:48:00,
2013-01-27 14:03:00,49.4,33.0,30.50,SSE,153,2.0,5.0,54,0.00,,,0.00,weatherlink.com 1.10,2013-01-27 19:03:00,
2013-01-27 14:18:00,48.7,35.0,30.50,SSE,161,3.0,7.0,59,0.00,,,0.00,weatherlink.com 1.10,2013-01-27 19:18:00,
2013-01-27 14:33:00,48.5,34.0,30.51,East,94,4.0,8.0,58,0.00,,,0.00,weatherlink.com 1.10,2013-01-27 19:33:00,
2013-01-27 14:48:00,49.1,35.0,30.50,SSE,150,3.0,4.0,58,0.00,,,0.00,weatherlink.com 1.10,2013-01-27 19:48:00,
2013-01-27 15:03:00,48.7,35.0,30.49,ESE,120,2.0,8.0,59,0.00,,,0.00,weatherlink.com 1.10,2013-01-27 20:03:00,
2013-01-27 15:18:00,48.7,36.0,30.49,SE,133,3.0,6.0,61,0.00,,,0.00,weatherlink.com 1.10,2013-01-27 20:18:00,
2013-01-27 15:33:00,47.5,35.0,30.49,SSW,202,1.0,8.0,63,0.00,,,0.00,weatherlink.com 1.10,2013-01-27 20:33:00,
2013-01-27 15:48:00,47.1,35.0,30.50,ESE,118,8.0,8.0,63,0.00,,,0.00,weatherlink.com 1.10,2013-01-27 20:48:00,
2013-01-27 16:03:00,46.9,34.0,30.50,SSE,165,2.0,8.0,62,0.00,,,0.00,weatherlink.com 1.10,2013-01-27 21:03:00,
2013-01-27 16:18:00,46.4,34.0,30.51,ESE,122,1.0,8.0,63,0.00,,,0.00,weatherlink.com 1.10,2013-01-27 21:18:00,
2013-01-27 16:33:00,46.2,34.0,30.51,SE,142,1.0,8.0,63,0.00,,,0.00,weatherlink.com 1.10,2013-01-27 21:33:00,
2013-01-27 16:48:00,45.8,34.0,30.50,ENE,62,4.0,6.0,63,0.00,,,0.00,weatherlink.com 1.10,2013-01-27 21:48:00,
2013-01-27 17:03:00,45.3,34.0,30.50,East,99,0.0,6.0,65,0.00,,,0.00,weatherlink.com 1.10,2013-01-27 22:03:00,
2013-01-27 17:18:00,44.8,34.0,30.50,East,99,4.0,5.0,66,0.00,,,0.00,weatherlink.com 1.10,2013-01-27 22:18:00,
2013-01-27 17:33:00,44.2,34.0,30.51,SE,127,1.0,3.0,68,0.00,,,0.00,weatherlink.com 1.10,2013-01-27 22:33:00,
2013-01-27 17:48:00,43.6,34.0,30.51,SE,132,0.0,3.0,69,0.00,,,0.00,weatherlink.com 1.10,2013-01-27 22:48:00,
2013-01-27 18:03:00,42.6,34.0,30.52,NNE,33,0.0,0.0,72,0.00,,,0.00,weatherlink.com 1.10,2013-01-27 23:03:00,
2013-01-27 18:18:00,41.5,34.0,30.51,NNE,33,0.0,0.0,74,0.00,,,0.00,weatherlink.com 1.10,2013-01-27 23:18:00,
2013-01-27 18:33:00,40.4,33.0,30.52,NNE,33,0.0,0.0,76,0.00,,,0.00,weatherlink.com 1.10,2013-01-27 23:33:00,
2013-01-27 18:48:00,39.7,33.0,30.52,NNE,33,0.0,0.0,77,0.00,,,0.00,weatherlink.com 1.10,2013-01-27 23:48:00,
2013-01-27 19:03:00,39.0,33.0,30.53,NNE,33,0.0,0.0,80,0.00,,,0.00,weatherlink.com 1.10,2013-01-28 00:03:00,
2013-01-27 19:18:00,38.5,33.0,30.53,NNW,345,1.0,2.0,82,0.00,,,0.00,weatherlink.com 1.10,2013-01-28 00:18:00,
2013-01-27 19:33:00,38.0,33.0,30.53,NNW,345,0.0,0.0,83,0.00,,,0.00,weatherlink.com 1.10,2013-01-28 00:33:00,
2013-01-27 19:48:00,37.6,33.0,30.52,NNW,345,0.0,0.0,84,0.00,,,0.00,weatherlink.com 1.10,2013-01-28 00:48:00,
2013-01-27 20:04:00,37.3,33.0,30.52,NNW,345,0.0,1.0,84,0.00,,,0.00,weatherlink.com 1.10,2013-01-28 01:04:00,
2013-01-27 20:19:00,36.6,33.0,30.52,NNW,345,0.0,0.0,85,0.00,,,0.00,weatherlink.com 1.10,2013-01-28 01:19:00,
2013-01-27 20:34:00,36.2,32.0,30.52,NNW,345,0.0,0.0,86,0.00,,,0.00,weatherlink.com 1.10,2013-01-28 01:34:00,
2013-01-27 20:49:00,36.5,33.0,30.52,NNW,345,0.0,1.0,86,0.00,,,0.00,weatherlink.com 1.10,2013-01-28 01:49:00,
2013-01-27 21:04:00,37.1,33.0,30.51,NNE,22,1.0,1.0,85,0.00,,,0.00,weatherlink.com 1.10,2013-01-28 02:04:00,
2013-01-27 21:19:00,37.8,33.0,30.51,ENE,60,1.0,2.0,83,0.00,,,0.00,weatherlink.com 1.10,2013-01-28 02:19:00,
2013-01-27 21:34:00,38.1,33.0,30.51,NNE,27,0.0,1.0,81,0.00,,,0.00,weatherlink.com 1.10,2013-01-28 02:34:00,
2013-01-27 21:49:00,37.7,33.0,30.52,NNE,18,0.0,1.0,82,0.00,,,0.00,weatherlink.com 1.10,2013-01-28 02:49:00,
2013-01-27 22:04:00,37.3,32.0,30.52,NNE,18,0.0,0.0,82,0.00,,,0.00,weatherlink.com 1.10,2013-01-28 03:04:00,
2013-01-27 22:19:00,37.0,32.0,30.52,North,11,1.0,1.0,82,0.00,,,0.00,weatherlink.com 1.10,2013-01-28 03:19:00,
2013-01-27 22:34:00,36.6,32.0,30.52,North,3,3.0,3.0,83,0.00,,,0.00,weatherlink.com 1.10,2013-01-28 03:34:00,
2013-01-27 22:49:00,36.9,32.0,30.50,NE,48,1.0,4.0,81,0.00,,,0.00,weatherlink.com 1.10,2013-01-28 03:49:00,
2013-01-27 23:04:00,37.2,32.0,30.51,ENE,66,2.0,3.0,80,0.00,,,0.00,weatherlink.com 1.10,2013-01-28 04:04:00,
2013-01-27 23:19:00,37.1,32.0,30.50,NE,55,2.0,3.0,81,0.00,,,0.00,weatherlink.com 1.10,2013-01-28 04:19:00,
2013-01-27 23:34:00,36.8,32.0,30.50,North,11,0.0,1.0,81,0.00,,,0.00,weatherlink.com 1.10,2013-01-28 04:34:00,
2013-01-27 23:49:00,36.6,31.0,30.50,North,353,0.0,2.0,81,0.00,,,0.00,weatherlink.com 1.10,2013-01-28 04:49:00,